Home   Weather   Male   Past weeks

Flag for Maldives Past Weather in Male, Maldives — Yesterday and Last 2 Weeks

Now
82 °F

Partly cloudy.


Feels Like: 89 °F
Forecast: 78 / 85 °F
Wind: 5 mph from Southwest

Location: Male Airport

Current Time: Dec 7, 2016 at 9:46:27 pm

Latest Report: Dec 7, 2016 at 9:00 pm


Visibility: N/A

Pressure: 29.92 "Hg

Humidity: 79%

Dew Point: 75 °F

Location of MaleLocation

Past Weather in Male — Graph

°F

Male Temperature Yesterday

Maximum temperature yesterday: 88 °F (at 10:00 am)
Minimum temperature yesterday: 81 °F (at 3:00 am)
Average temperature yesterday: 84 °F

High & Low Weather Summary for the Past Weeks

 TemperatureHumidityPressure
High88 °F (Nov 27, 1:00 pm)100% (Nov 25, 8:00 am)29.95 "Hg (Nov 25, 8:00 am)
Low73 °F (Nov 25, 8:00 am)62% (Dec 5, 1:00 pm)29.74 "Hg (Nov 24, 3:00 pm)
Average83 °F79%29.86 "Hg
* Reported Nov 22 9:00 pm — Dec 7 8:00 pm, Male, Weather by CustomWeather, © 2016

Note: Actual official high and low records may vary slightly from our data, if they occured in-between our weather recording intervals... More about our weather records

Advertising

Male Weather History for the Previous 24 Hours

Scroll right to see more
 ConditionsComfort  
Time TempWeatherWind HumidityBarometerVisibility
8:00 pm
Wed, Dec 7
82 °FPartly cloudy.5 mph79%29.89 "HgN/A
7:00 pm82 °FPassing clouds.6 mph79%29.86 "HgN/A
6:00 pm82 °FPassing clouds.6 mph79%29.83 "HgN/A
5:00 pm84 °FMore clouds than sun.8 mph74%29.83 "HgN/A
4:00 pm84 °FDrizzle. Broken clouds.3 mph70%29.80 "Hg5 mi
3:00 pm84 °FBroken clouds.6 mph74%29.80 "HgN/A
2:00 pm84 °FBroken clouds.6 mph84%29.83 "HgN/A
1:00 pm84 °FBroken clouds.8 mph74%29.83 "HgN/A
12:00 pm84 °FPartly sunny.6 mph74%29.89 "HgN/A
11:00 am84 °FPartly sunny.6 mph74%29.89 "HgN/A
10:00 am84 °FPartly sunny.5 mph74%29.92 "HgN/A
9:00 am82 °FPartly sunny.5 mph79%29.92 "HgN/A
8:00 am81 °FBroken clouds.5 mph84%29.92 "HgN/A
7:00 am81 °FDrizzle. Broken clouds.6 mph84%29.89 "Hg5 mi
5:00 am81 °FPartly cloudy.8 mph84%29.86 "HgN/A
4:00 am79 °FPartly cloudy.9 mph89%29.83 "HgN/A
3:00 am79 °FPartly cloudy.5 mph89%29.83 "HgN/A
2:00 am77 °FPassing clouds.6 mph94%29.83 "HgN/A
1:00 am77 °FSprinkles. Passing clouds.5 mph94%29.86 "Hg5 mi
12:00 am77 °FSprinkles. Overcast.7 mph94%29.89 "Hg4 mi
10:00 pm
Tue, Dec 6
84 °FPassing clouds.3 mph74%29.89 "HgN/A
9:00 pm82 °FPassing clouds.2 mph79%29.89 "HgN/A
Weather by CustomWeather, © 2016

See weather overviewHow to use our weather pages